DW9636 Weather Reports


Display with metric or nautical units.
time (UTC)temp
F
wind
direction
speed
MPH
gust
MPH
rain 1hr
in
rain 24hr
in
rain mn
in
humidity
%
barometer
mb
20260502161526 51 5 0.0 0.0 0.00 0.00 0.00 92 1009.9
20260502151523 45 5 0.0 0.0 0.00 0.00 0.00 96 1010.3
20260502123010 39 5 0.0 0.0 0.00 0.00 0.00 94 1010.0
20260502121508 39 5 0.0 0.0 0.00 0.00 0.00 94 1010.2
20260502114507 40 5 0.0 0.0 0.00 0.00 0.00 94 1010.2
20260502113005 40 5 0.0 0.0 0.00 0.00 0.00 94 1010.3
20260502111503 40 5 0.0 0.0 0.00 0.00 0.00 94 1010.3
20260502110003 40 5 0.0 0.0 0.00 0.00 0.00 93 1010.3
20260502104600 40 5 0.0 0.0 0.00 0.00 0.00 93 1010.5
20260502103058 41 5 0.0 0.0 0.00 0.00 0.00 92 1010.4
20260502101555 41 5 0.0 0.0 0.00 0.00 0.00 93 1010.5
20260502071532 48 5 0.0 0.0 0.00 0.00 0.00 91 1010.8
20260502070028 48 5 0.0 0.0 0.00 0.00 0.00 91 1010.8
20260502064531 49 5 0.0 0.0 0.00 0.00 0.11 91 1011.1
20260502063027 49 5 0.0 0.0 0.00 0.00 0.11 90 1010.9
20260502061525 50 5 0.0 0.0 0.00 0.00 0.11 89 1011.0
20260502060025 50 5 0.0 0.0 0.00 0.00 0.11 89 1010.9
20260502054525 51 5 0.0 0.0 0.00 0.00 0.11 86 1010.7
20260502053024 51 5 0.0 0.0 0.00 0.00 0.11 84 1010.9
20260502051527 54 17 2.0 0.0 0.00 0.00 0.10 78 1011.1
20260502050026 60 168 0.0 0.0 0.00 0.00 0.00 60 1012.1
20260502044522 59 246 1.0 0.0 0.00 0.00 0.00 64 1011.5
20260502043022 58 296 0.0 0.0 0.00 0.00 0.00 60 1011.1
20260502041522 59 296 0.0 0.0 0.00 0.00 0.00 60 1010.1
20260502040023 60 296 0.0 0.0 0.00 0.00 0.00 60 1010.0
20260502034521 61 296 0.0 0.0 0.00 0.00 0.00 57 1009.7
20260502033020 62 296 0.0 0.0 0.00 0.00 0.00 55 1009.4
20260502031520 63 296 0.0 0.0 0.00 0.00 0.00 53 1009.2
20260502030023 65 296 0.0 0.0 0.00 0.00 0.00 51 1009.2
20260502024519 66 296 0.0 0.0 0.00 0.00 0.00 48 1009.2
20260502023029 67 296 0.0 0.0 0.00 0.00 0.00 45 1009.1
20260502021516 68 296 0.0 0.0 0.00 0.00 0.00 38 1009.1
20260502020022 70 296 0.0 0.0 0.00 0.00 0.00 36 1008.9
20260502014514 71 286 0.0 0.0 0.00 0.00 0.00 33 1008.9
20260502013015 73 267 0.0 0.0 0.00 0.00 0.00 22 1008.9
20260502011512 73 193 0.0 0.0 0.00 0.00 0.00 21 1009.0
20260502010011 73 190 0.0 0.0 0.00 0.00 0.00 22 1009.0
20260502004510 74 182 0.0 0.0 0.00 0.00 0.00 21 1009.1
20260502003009 74 212 1.0 0.0 0.00 0.00 0.00 21 1009.2
20260502001511 74 217 1.0 0.0 0.00 0.00 0.00 21 1009.4
20260502000007 74 207 0.0 0.0 0.00 0.00 0.00 21 1009.6
20260501234505 74 217 0.0 0.0 0.00 0.00 0.00 20 1009.6
20260501233002 74 171 0.0 0.0 0.00 0.00 0.00 20 1009.9
20260501231639 74 219 0.0 0.0 0.00 0.00 0.00 21 1010.0
20260501230101 75 209 1.0 0.0 0.00 0.00 0.00 20 1010.3
20260501224604 74 215 1.0 0.0 0.00 0.00 0.00 19 1010.6
20260501223054 73 202 0.0 0.0 0.00 0.00 0.00 22 1010.9
20260501221606 75 195 1.0 0.0 0.00 0.00 0.00 21 1011.1
20260501220050 75 250 1.0 0.0 0.00 0.00 0.00 21 1011.4
20260501214549 76 286 1.0 0.0 0.00 0.00 0.00 21 1011.6
20260501213046 76 130 0.0 0.0 0.00 0.00 0.00 20 1012.0
20260501211600 75 157 1.0 0.0 0.00 0.00 0.00 21 1011.9
20260501210042 73 178 1.0 0.0 0.00 0.00 0.00 22 1012.1
20260501204541 75 209 1.0 0.0 0.00 0.00 0.00 20 1012.3
20260501203039 74 305 1.0 0.0 0.00 0.00 0.00 21 1012.4
20260501201537 74 213 1.0 0.0 0.00 0.00 0.00 20 1012.6
20260501200033 72 112 1.0 0.0 0.00 0.00 0.00 22 1012.8
20260501194533 73 200 0.0 0.0 0.00 0.00 0.00 22 1013.0
20260501193041 73 115 1.0 0.0 0.00 0.00 0.00 23 1013.1
20260501191525 71 233 0.0 0.0 0.00 0.00 0.00 25 1013.4
20260501190029 70 137 0.0 0.0 0.00 0.00 0.00 25 1013.7
20260501184520 69 208 0.0 0.0 0.00 0.00 0.00 25 1014.0
20260501183017 68 144 1.0 0.0 0.00 0.00 0.00 27 1014.2
20260501181512 67 79 0.0 0.0 0.00 0.00 0.00 28 1014.4
20260501180008 65 288 0.0 0.0 0.00 0.00 0.00 33 1014.4
20260501174508 64 200 0.0 0.0 0.00 0.00 0.00 34 1014.6
20260501173003 62 161 0.0 0.0 0.00 0.00 0.00 37 1014.6
20260501171558 60 160 0.0 0.0 0.00 0.00 0.00 42 1014.7
20260501170054 58 158 0.0 0.0 0.00 0.00 0.00 47 1014.9
20260501164551 55 155 0.0 0.0 0.00 0.00 0.00 51 1015.0
20260501163048 53 155 0.0 0.0 0.00 0.00 0.00 54 1015.2